CW3467 Sant Marti de Canals ES current weather conditions

sailwx.info

Wind from 235

Air temperature 13.3° C
Dewpoint 10.3° C

Last reported at 2014-Nov-22 13:49 UTC.
Time now 2014-Nov-22 14:22 UTC

Location: N 42°14' E 000°59'.
View on Google Maps.

See reports from other nearby stations

  
Tides and Currents Weather Stations Pressure Air Temp Water Temp Dewpoint Dewpoint Depression Visibility Wind Speed Wind Dir Waves Ship Positions
date/time (UTC)wind fromknots sea level pressurealtimeterstation pressurevisibilityair tempwater tempwave heightnotes
2014-Nov-22 13:49 235 13.3
2014-Nov-22 13:34 259 13.3
2014-Nov-22 13:19 210 13.3
2014-Nov-22 13:04 226 0 gusting 1 12.8
2014-Nov-22 12:49 141 12.2
2014-Nov-22 12:34 243 12.2
2014-Nov-22 12:19 215 12.2
2014-Nov-22 12:04 219 11.7
2014-Nov-22 11:49 128 11.7
2014-Nov-22 11:34 210 11.7
2014-Nov-22 11:19 212 11.7
2014-Nov-22 11:04 207 11.7
2014-Nov-22 10:49 212 10.6
2014-Nov-22 10:34 222 10.0
2014-Nov-22 10:19 224 9.4
2014-Nov-22 10:04 224 10.6
2014-Nov-22 09:49 163 10.6
2014-Nov-22 09:34 198 9.4
2014-Nov-22 09:19 286 9.4
2014-Nov-22 09:04 135 9.4
2014-Nov-22 08:49 177 9.4
2014-Nov-22 08:34 049 8.9
2014-Nov-22 08:19 050 8.9
2014-Nov-22 08:04 050 7.8
2014-Nov-22 07:49 044 7.2
2014-Nov-22 07:34 027 1 gusting 2 6.1
2014-Nov-22 07:19 013 6.1
2014-Nov-22 07:04 228 6.1
2014-Nov-22 06:49 125 6.7
2014-Nov-22 06:34 096 6.1
2014-Nov-22 06:19 330 6.7
2014-Nov-22 06:04 352 7.2
2014-Nov-22 05:49 087 7.8
2014-Nov-22 05:34 088 7.8
2014-Nov-22 05:19 107 7.2
2014-Nov-22 05:04 036 7.2
2014-Nov-22 04:49 027 7.2
2014-Nov-22 04:34 010 6.7
2014-Nov-22 04:19 231 6.7
2014-Nov-22 04:03 195 6.7
2014-Nov-22 03:48 180 7.8
2014-Nov-22 03:33 129 7.8
2014-Nov-22 03:18 140 0 gusting 0 7.8
2014-Nov-22 03:03 167 7.8
2014-Nov-22 02:48 082 8.3
2014-Nov-22 02:33 022 8.3
2014-Nov-22 02:18 022 8.3
2014-Nov-22 02:03 012 7.8
2014-Nov-22 01:48 199 7.8
2014-Nov-22 01:33 150 0 gusting 1 8.3
2014-Nov-22 01:18 045 8.3
2014-Nov-22 01:03 033 0 gusting 1 8.3
2014-Nov-22 00:48 131 0 gusting 1 8.3
2014-Nov-22 00:33 099 8.3
2014-Nov-22 00:18 099 8.3
2014-Nov-22 00:03 100 8.3
2014-Nov-21 23:48 015 8.3
2014-Nov-21 23:33 069 8.9
2014-Nov-21 23:18 109 0 gusting 1 8.9
2014-Nov-21 23:03 114 8.3
2014-Nov-21 22:48 060 8.9
2014-Nov-21 22:33 058 8.9
2014-Nov-21 22:18 058 8.9
2014-Nov-21 22:03 029 8.9
2014-Nov-21 21:48 320 9.4
2014-Nov-21 21:33 094 0 gusting 2 9.4
2014-Nov-21 21:18 104 2 gusting 3 9.4
2014-Nov-21 21:03 117 10.0
2014-Nov-21 20:48 120 10.0
2014-Nov-21 20:33 031 10.0
2014-Nov-21 20:18 105 10.6
2014-Nov-21 20:03 039 10.0
2014-Nov-21 19:48 032 10.6
2014-Nov-21 19:33 348 10.6
2014-Nov-21 19:18 090 10.6
2014-Nov-21 19:03 103 0 gusting 0 10.6
2014-Nov-21 18:48 158 11.1
2014-Nov-21 18:33 131 11.7
2014-Nov-21 18:18 082 0 gusting 1 11.7
2014-Nov-21 18:03 126 11.1
2014-Nov-21 17:48 015 11.1
2014-Nov-21 17:33 110 11.7
2014-Nov-21 17:18 102 12.2
2014-Nov-21 17:03 110 12.2
2014-Nov-21 16:48 110 12.2
2014-Nov-21 16:33 110 12.8
2014-Nov-21 16:18 148 0 gusting 2 13.3
2014-Nov-21 16:03 353 13.9
2014-Nov-21 15:48 324 14.4
2014-Nov-21 15:33 330 14.4
2014-Nov-21 15:18 324 15.0
2014-Nov-21 15:03 221 15.6
2014-Nov-21 14:48 215 15.6
2014-Nov-21 14:33 207 16.1
2014-Nov-21 14:18 257 15.6
2014-Nov-21 14:03 176 0 gusting 3 15.0
2014-Nov-21 13:48 235 16.1
2014-Nov-21 13:33 228 15.0
2014-Nov-21 13:17 249 15.6
2014-Nov-21 13:02 278 15.6
2014-Nov-21 12:47 340 15.0
2014-Nov-21 12:32 269 14.4
2014-Nov-21 12:17 274 13.3
2014-Nov-21 12:02 281 13.9
2014-Nov-21 11:47 253 13.3
2014-Nov-21 11:32 294 12.8
2014-Nov-21 11:17 212 12.8
2014-Nov-21 11:02 228 12.2
2014-Nov-21 10:47 140 11.7
2014-Nov-21 10:32 215 10.6
2014-Nov-21 10:17 213 10.0
2014-Nov-21 10:02 139 9.4
2014-Nov-21 09:47 223 8.9
2014-Nov-21 09:32 216 8.9
2014-Nov-21 09:17 224 8.3
2014-Nov-21 09:02 148 7.8
2014-Nov-21 08:47 230 8.3
2014-Nov-21 08:33 285 6.7
2014-Nov-21 08:17 016 6.1
2014-Nov-21 08:02 015 5.6
2014-Nov-21 07:47 044 5.0
2014-Nov-21 07:32 113 3.9
2014-Nov-21 07:17 113 3.9
2014-Nov-21 07:02 112 4.4
2014-Nov-21 06:47 085 4.4
2014-Nov-21 06:32 085 5.0
2014-Nov-21 06:17 085 5.0
2014-Nov-21 06:01 085 4.4
2014-Nov-21 05:46 085 4.4
2014-Nov-21 05:31 085 5.0
2014-Nov-21 05:16 037 5.0
2014-Nov-21 05:01 120 5.0
2014-Nov-21 04:46 120 5.0
2014-Nov-21 04:31 138 5.6
2014-Nov-21 04:16 025 5.0
2014-Nov-21 04:01 305 5.0
2014-Nov-21 03:46 012 5.6
2014-Nov-21 03:31 036 5.0
2014-Nov-21 03:16 027 5.6
2014-Nov-21 03:01 027 5.0
2014-Nov-21 02:46 027 5.6
2014-Nov-21 02:31 142 0 gusting 2 6.1
2014-Nov-21 02:16 141 6.1
2014-Nov-21 02:01 149 6.1
2014-Nov-21 01:46 149 6.1
2014-Nov-21 01:31 131 6.7
2014-Nov-21 01:17 031 6.1
2014-Nov-21 01:01 029 6.1
2014-Nov-21 00:46 104 6.7
2014-Nov-21 00:31 267 6.7
2014-Nov-21 00:16 087 7.2
2014-Nov-21 00:01 087 7.2
2014-Nov-20 23:46 026 7.2
2014-Nov-20 23:31 027 7.2
2014-Nov-20 23:16 106 7.2
2014-Nov-20 23:01 094 7.2
2014-Nov-20 22:46 033 7.2
2014-Nov-20 22:31 044 7.2
2014-Nov-20 22:16 229 7.8
2014-Nov-20 22:01 108 7.8
2014-Nov-20 21:46 131 7.8
2014-Nov-20 21:31 131 8.3
2014-Nov-20 21:16 087 8.3
2014-Nov-20 21:01 087 8.3
2014-Nov-20 20:46 094 8.3
2014-Nov-20 20:31 095 8.3
2014-Nov-20 20:16 159 8.9
2014-Nov-20 20:01 327 8.9
2014-Nov-20 19:46 097 9.4
2014-Nov-20 19:31 128 9.4
2014-Nov-20 19:16 103 8.9
2014-Nov-20 19:01 103 9.4
2014-Nov-20 18:46 107 9.4
2014-Nov-20 18:31 115 9.4
2014-Nov-20 18:16 125 10.0
2014-Nov-20 18:01 278 10.0
2014-Nov-20 17:46 077 11.1
2014-Nov-20 17:31 068 10.6
2014-Nov-20 17:16 033 11.1
2014-Nov-20 17:01 033 11.7
2014-Nov-20 16:46 031 12.2
2014-Nov-20 16:31 243 13.3
2014-Nov-20 16:16 214 15.0
2014-Nov-20 16:01 214 17.2
2014-Nov-20 15:46 232 16.7
2014-Nov-20 15:31 222 17.2
2014-Nov-20 15:16 217 16.7
2014-Nov-20 15:01 222 16.7
2014-Nov-20 14:45 215 16.1
2014-Nov-20 14:30 256 16.1
2014-Nov-20 14:15 204 16.1
2014-Nov-20 14:00 233 15.6